Wind_Speed
12 12 10 9 9 9 8 9 8 7 7 7 7 8 9 10 9 10 10 10 10 11 10 9 9 9 8 8 9 9 7 7 7 4 4 5 3 2 2 3 3 2
12 11 10 9 9 10 9 8 7 8 9 8 7 9 10 10 9 11 11 11 10 10 10 10 10 10 9 9 9 10 9 7 7 6 6 6 4 3 3 4 3 2
12 11 11 11 10 10 9 9 9 10 11 11 9 9 9 10 10 11 12 12 10 9 10 10 10 10 10 10 9 8 8 7 8 8 8 7 6 5 4 4 4 4
13 12 12 12 11 9 9 11 12 11 11 11 11 10 9 9 10 10 10 11 10 10 10 10 10 10 10 10 8 8 9 8 8 9 9 7 6 6 6 4 4 5
15 14 13 13 12 10 12 14 13 12 12 12 11 11 9 9 10 9 9 10 10 11 10 10 10 10 10 9 9 10 11 10 9 10 9 8 7 7 6 4 6 7
15 15 14 14 13 12 13 14 12 11 12 11 10 10 9 9 9 9 8 9 9 10 10 10 9 9 10 9 9 10 11 10 10 10 9 8 8 8 6 5 8 9
15 15 15 15 14 13 12 12 11 11 11 10 10 10 10 10 9 8 9 9 9 10 11 10 10 9 9 9 9 10 11 11 10 10 10 9 8 9 8 7 9 9
15 15 15 15 14 14 13 12 12 11 10 11 11 11 11 11 10 10 10 9 9 10 10 11 10 9 9 10 10 10 10 10 10 9 9 9 9 10 9 8 9 9
15 15 15 15 14 14 14 13 13 11 11 11 12 12 13 12 11 11 11 10 10 10 11 12 11 10 10 10 10 10 10 9 10 10 9 9 10 10 8 9 9 8
15 15 14 14 14 14 14 14 13 13 12 12 13 13 13 12 11 11 12 12 12 12 12 13 12 10 10 10 10 10 9 9 11 11 9 8 9 9 8 7 8 8
14 14 14 13 13 13 14 13 13 13 13 13 14 13 12 11 11 12 13 13 12 13 13 13 12 11 11 10 9 9 9 10 11 12 10 9 8 8 8 8 9 9
13 13 13 13 13 13 13 13 13 13 14 13 13 14 13 13 13 13 14 14 13 13 13 13 12 12 12 11 10 10 11 11 10 11 11 10 10 10 9 10 10 9
15 14 14 13 13 13 12 13 13 13 14 15 14 14 14 14 14 14 14 14 13 13 13 13 12 12 12 12 11 12 12 11 10 11 11 10 9 9 9 9 10 9
15 16 16 14 12 12 12 13 13 13 13 14 15 15 14 15 14 13 14 15 14 13 13 13 13 13 13 13 12 12 12 11 11 12 11 10 9 9 9 10 11 10
13 14 15 15 14 13 12 12 13 13 13 13 14 15 14 14 15 14 15 15 14 13 13 13 13 14 14 14 13 13 13 12 11 12 12 11 11 11 12 10 10 11
16 15 15 17 18 17 16 14 13 13 13 13 14 15 15 14 15 15 15 15 15 13 12 12 15 15 15 14 13 13 13 12 12 13 12 12 12 13 12 10 10 10
19 18 18 19 18 19 19 18 17 16 14 13 13 14 15 14 14 14 14 14 14 14 13 14 16 16 16 14 11 12 13 12 13 14 12 12 14 13 13 12 11 10
19 20 21 21 20 20 20 20 21 21 19 18 15 13 14 14 14 15 15 14 13 13 15 17 17 16 15 14 12 12 12 11 12 13 11 11 12 13 13 12 10 10
21 21 21 21 19 20 20 21 22 23 23 23 22 18 15 15 16 17 17 15 13 13 14 16 16 15 16 15 13 13 13 12 13 13 12 11 11 11 11 11 11 12
23 23 23 22 20 20 21 21 22 22 22 25 26 24 20 17 17 18 18 18 17 14 14 14 14 13 14 16 14 14 15 15 14 13 13 13 11 11 12 13 13 13
21 22 23 23 23 24 24 23 22 22 22 23 25 25 24 21 19 18 19 19 18 17 17 17 14 12 12 14 14 15 16 16 15 14 14 12 12 14 15 15 14 14
18 19 19 19 19 22 24 24 22 22 22 23 23 23 24 24 21 19 20 20 19 18 19 18 16 14 13 13 13 15 16 17 17 16 14 12 13 16 17 15 14 14
17 18 18 18 17 18 21 22 23 24 25 25 24 24 24 24 21 20 20 20 19 18 19 19 18 16 15 14 15 16 17 18 17 15 13 13 15 17 17 16 15 14
9 12 14 16 18 19 19 20 22 24 26 26 26 26 26 26 24 22 21 20 20 20 21 22 20 18 16 15 16 18 18 18 17 16 15 15 16 17 16 17 15 13
1 2 4 8 13 16 18 20 21 22 23 24 24 24 26 27 27 26 24 22 21 22 23 23 23 21 20 18 18 20 19 19 19 20 19 18 18 17 16 16 15 12
6 6 5 3 1 5 10 14 18 19 19 21 22 20 21 23 25 26 26 24 23 23 24 25 24 24 23 21 20 20 19 19 21 22 20 19 18 17 16 16 15 14
Wind_Direction
193 192 192 192 188 188 189 186 185 189 196 210 208 199 201 203 200 198 214 230 223 218 220 217 220 219 215 214 207 208 211 202 205 218 225 238 231 191 246 252 217 259
197 197 194 191 191 191 181 173 189 195 199 213 203 194 204 205 204 201 204 223 229 222 222 220 219 221 217 218 212 208 214 209 204 214 218 226 232 213 237 246 217 240
195 198 196 194 195 199 185 175 196 202 202 213 206 199 213 214 212 212 208 217 226 222 222 221 219 222 218 219 220 214 217 215 210 220 227 224 224 223 234 249 237 229
196 200 197 194 195 200 195 192 204 205 199 212 214 208 219 220 213 218 220 218 216 216 222 222 218 221 222 218 217 220 226 226 220 227 236 231 229 231 224 230 242 231
196 199 196 194 197 202 202 201 207 207 199 205 213 210 214 217 207 209 224 224 215 215 221 226 223 222 227 221 214 223 230 231 230 233 239 238 237 236 225 237 257 240
201 199 196 195 202 209 207 203 204 207 205 207 211 208 209 219 215 207 220 227 219 215 218 227 227 222 227 225 220 227 230 233 235 233 233 234 235 234 222 235 256 249
204 203 201 196 202 213 212 210 210 204 207 212 209 206 209 219 223 219 222 223 217 214 216 223 227 224 226 224 223 231 232 233 239 236 230 231 236 239 227 222 245 258
201 204 205 200 202 210 211 215 218 208 207 214 209 211 218 214 213 221 223 217 215 215 215 224 233 232 231 228 226 232 232 233 241 241 235 235 240 245 239 232 242 255
200 204 206 205 204 210 212 213 218 214 213 218 217 223 228 214 204 216 219 215 218 217 216 227 233 232 238 239 234 234 230 228 234 237 242 250 249 248 247 243 246 253
203 204 208 211 208 211 216 215 217 217 215 219 224 232 234 217 206 215 218 218 220 217 219 228 229 230 240 239 233 231 227 225 230 233 242 255 256 251 250 252 255 258
206 207 210 215 212 214 219 219 220 222 223 222 225 233 235 221 215 218 221 226 230 224 226 230 226 229 236 233 228 233 236 233 231 233 238 246 251 248 243 244 248 249
204 207 212 216 218 220 222 224 224 224 226 227 225 228 231 230 229 224 219 229 236 231 230 232 229 229 232 230 225 228 240 243 235 235 240 241 243 244 242 244 248 250
207 206 209 213 219 224 226 229 231 229 229 230 229 227 226 231 237 233 226 234 241 236 231 232 236 238 234 231 225 223 234 244 240 240 248 249 248 247 247 252 259 260
222 216 213 211 214 222 228 231 234 236 234 232 232 231 227 229 234 234 233 239 246 245 236 230 236 243 239 233 229 223 225 234 239 239 242 250 257 254 247 244 250 257
225 220 220 220 214 214 221 229 237 242 242 238 235 232 230 229 230 230 233 241 249 249 241 232 232 238 242 241 237 229 221 226 239 240 236 240 245 250 249 241 242 254
219 219 227 231 225 220 218 219 226 234 240 241 237 234 233 232 231 230 231 241 250 249 241 233 231 233 240 245 245 238 224 219 231 239 239 240 242 248 255 251 247 251
221 221 227 231 232 232 230 228 230 232 234 237 237 232 231 232 233 231 230 235 244 246 242 240 238 235 236 240 244 244 238 230 232 235 237 244 246 249 253 255 256 259
222 222 224 228 233 237 237 237 240 241 241 246 251 246 237 231 227 226 229 235 243 249 246 243 242 240 239 238 238 243 251 253 245 237 237 248 252 252 257 260 262 268
227 226 225 228 232 236 236 237 240 242 241 243 248 253 251 244 234 229 229 231 239 253 252 244 242 242 240 237 236 238 245 254 257 252 249 256 262 263 263 259 254 257
233 233 233 232 232 234 237 237 237 238 236 236 239 242 244 243 239 236 233 228 231 247 260 255 249 245 241 240 239 234 231 236 248 256 253 254 264 271 263 251 246 246
236 238 241 242 241 240 241 241 238 235 234 236 237 236 236 235 234 236 239 236 234 240 252 257 253 246 243 243 238 232 229 232 244 255 256 253 258 265 265 263 259 254
244 245 245 246 244 240 238 238 237 235 233 234 233 231 231 232 232 236 241 244 242 240 243 251 254 251 246 242 237 236 238 241 248 257 260 255 251 257 266 273 271 266
250 250 247 245 243 240 237 236 235 234 234 235 234 230 228 229 232 237 240 243 245 245 244 248 253 252 246 240 237 240 243 245 246 249 250 248 248 254 262 267 269 271
252 251 247 243 240 239 240 240 238 237 238 239 241 239 238 237 237 239 243 245 244 244 244 247 250 249 246 244 240 237 239 243 244 242 241 244 249 255 260 262 266 272
6 294 253 245 242 241 242 244 244 244 242 242 243 243 242 243 242 241 244 245 243 242 243 245 248 248 247 248 247 241 241 247 250 250 249 250 253 257 261 263 263 265
58 55 55 41 308 242 243 246 249 251 246 238 235 234 234 238 241 242 243 243 242 242 242 242 243 244 244 245 246 244 244 248 252 253 253 253 253 254 256 258 258 259
Height
1578 1580 1581 1582 1583 1585 1586 1587 1588 1588 1590 1591 1591 1592 1592 1593 1593 1594 1595 1594 1595 1596 1596 1597 1598 1598 1599 1600 1600 1601 1602 1602 1602 1603 1604 1604 1605 1605 1606 1607 1607 1607
1577 1579 1580 1582 1583 1585 1586 1587 1588 1588 1590 1591 1591 1591 1591 1592 1593 1593 1594 1594 1594 1595 1595 1596 1597 1597 1598 1599 1600 1600 1601 1601 1602 1602 1603 1603 1603 1604 1605 1606 1606 1607
1577 1578 1579 1581 1583 1584 1584 1585 1587 1589 1590 1590 1590 1591 1591 1591 1592 1592 1593 1593 1593 1594 1594 1595 1596 1596 1597 1598 1599 1599 1600 1600 1601 1601 1602 1602 1602 1603 1604 1605 1605 1605
1576 1577 1579 1581 1582 1583 1584 1585 1587 1588 1589 1589 1589 1590 1590 1590 1591 1591 1592 1592 1592 1593 1594 1594 1595 1595 1596 1597 1598 1599 1599 1599 1600 1600 1601 1601 1602 1602 1603 1604 1604 1605
1575 1577 1579 1581 1582 1584 1585 1586 1587 1587 1588 1588 1589 1589 1589 1589 1590 1590 1590 1591 1592 1592 1593 1594 1594 1595 1595 1596 1597 1598 1598 1599 1599 1599 1600 1601 1601 1601 1602 1603 1604 1604
1574 1576 1578 1580 1582 1583 1585 1585 1586 1587 1587 1587 1587 1588 1588 1588 1589 1589 1590 1590 1591 1592 1593 1593 1594 1594 1595 1595 1596 1596 1597 1598 1598 1598 1599 1600 1600 1601 1602 1603 1603 1603
1574 1575 1577 1579 1580 1582 1583 1583 1584 1585 1586 1586 1586 1587 1587 1587 1588 1588 1589 1590 1590 1591 1592 1593 1593 1594 1594 1595 1595 1596 1596 1597 1597 1598 1598 1599 1599 1600 1600 1601 1602 1602
1573 1574 1576 1578 1579 1581 1581 1582 1583 1583 1584 1585 1585 1586 1586 1587 1588 1588 1589 1589 1590 1591 1591 1592 1592 1593 1594 1594 1595 1595 1595 1596 1596 1597 1597 1598 1598 1599 1599 1600 1600 1601
1572 1573 1575 1576 1578 1580 1581 1581 1582 1582 1583 1584 1584 1585 1586 1587 1587 1588 1588 1589 1590 1591 1591 1591 1591 1592 1592 1593 1594 1594 1595 1595 1596 1596 1597 1597 1597 1598 1598 1599 1599 1600
1571 1572 1574 1575 1576 1578 1580 1581 1582 1582 1583 1584 1584 1585 1585 1586 1586 1587 1587 1588 1589 1590 1590 1591 1591 1591 1591 1592 1593 1594 1594 1595 1595 1595 1595 1596 1597 1597 1597 1598 1599 1599
1570 1572 1573 1574 1575 1577 1578 1580 1581 1582 1582 1583 1584 1584 1584 1585 1586 1586 1586 1587 1588 1589 1590 1590 1590 1590 1591 1591 1592 1593 1593 1594 1594 1594 1595 1595 1596 1596 1597 1598 1598 1598
1569 1570 1572 1573 1575 1576 1578 1579 1580 1581 1582 1582 1583 1584 1584 1584 1585 1585 1585 1586 1587 1588 1588 1589 1589 1590 1590 1591 1591 1592 1593 1593 1593 1593 1594 1594 1595 1595 1596 1597 1597 1597
1567 1569 1571 1572 1574 1575 1577 1578 1579 1581 1582 1582 1583 1583 1584 1584 1584 1585 1585 1585 1586 1587 1587 1588 1588 1589 1590 1590 1590 1591 1592 1592 1593 1593 1593 1594 1594 1594 1595 1596 1596 1597
1566 1568 1569 1571 1572 1574 1576 1577 1579 1580 1581 1582 1582 1582 1583 1584 1584 1584 1584 1584 1585 1586 1586 1587 1587 1588 1589 1589 1589 1590 1591 1591 1592 1593 1593 1593 1594 1594 1594 1596 1596 1597
1563 1566 1568 1569 1571 1572 1574 1576 1578 1579 1580 1581 1581 1581 1582 1583 1584 1584 1584 1584 1584 1585 1585 1586 1587 1587 1588 1588 1589 1589 1590 1590 1591 1592 1593 1593 1594 1594 1594 1594 1595 1596
1561 1563 1565 1567 1568 1569 1571 1573 1574 1576 1578 1579 1580 1581 1581 1582 1582 1583 1583 1583 1583 1584 1585 1585 1585 1586 1586 1587 1588 1588 1589 1590 1590 1591 1592 1593 1593 1593 1593 1594 1594 1595
1559 1561 1562 1564 1565 1567 1568 1570 1571 1573 1574 1576 1578 1579 1580 1580 1581 1581 1582 1583 1583 1583 1584 1584 1584 1584 1585 1585 1586 1587 1588 1589 1589 1590 1590 1591 1592 1592 1592 1593 1593 1594
1557 1559 1560 1562 1564 1565 1566 1567 1568 1570 1573 1575 1576 1577 1577 1578 1578 1579 1580 1581 1583 1583 1582 1581 1582 1583 1583 1584 1585 1586 1587 1588 1588 1589 1589 1590 1590 1591 1591 1592 1593 1594
1556 1557 1558 1560 1562 1562 1563 1564 1565 1567 1569 1572 1574 1576 1578 1577 1577 1577 1578 1579 1580 1579 1578 1579 1580 1581 1581 1582 1583 1584 1586 1587 1587 1588 1588 1589 1589 1590 1590 1591 1591 1592
1553 1554 1556 1559 1560 1560 1561 1561 1563 1565 1566 1568 1571 1574 1577 1577 1576 1576 1576 1576 1577 1577 1577 1578 1579 1579 1580 1581 1582 1583 1584 1585 1586 1587 1587 1589 1589 1588 1587 1587 1588 1588
1551 1552 1554 1556 1557 1558 1558 1559 1561 1563 1564 1566 1568 1570 1573 1574 1574 1574 1574 1575 1575 1575 1576 1577 1578 1579 1580 1580 1581 1582 1582 1583 1584 1585 1586 1587 1587 1585 1584 1585 1587 1587
1549 1550 1551 1553 1554 1555 1556 1558 1559 1560 1562 1564 1565 1568 1569 1570 1571 1572 1573 1574 1573 1574 1574 1575 1576 1577 1578 1578 1580 1581 1581 1582 1582 1583 1584 1585 1584 1583 1583 1585 1586 1586
1547 1548 1549 1550 1552 1553 1554 1555 1557 1558 1560 1561 1563 1565 1566 1567 1568 1570 1571 1571 1572 1572 1573 1574 1575 1575 1576 1577 1578 1579 1580 1580 1580 1581 1581 1581 1581 1582 1583 1584 1585 1586
1546 1546 1547 1548 1549 1551 1552 1553 1554 1555 1557 1558 1561 1562 1563 1564 1565 1566 1568 1569 1569 1570 1571 1572 1573 1573 1574 1574 1575 1577 1577 1578 1578 1578 1579 1579 1580 1580 1582 1583 1584 1584
1545 1545 1546 1546 1547 1548 1550 1550 1551 1552 1553 1555 1557 1558 1559 1560 1561 1563 1564 1565 1566 1567 1568 1569 1570 1570 1571 1572 1573 1574 1575 1575 1576 1576 1577 1578 1579 1579 1580 1581 1582 1582
1545 1546 1546 1546 1546 1547 1547 1547 1548 1549 1550 1552 1553 1555 1556 1557 1557 1559 1561 1562 1564 1565 1566 1566 1567 1567 1568 1569 1570 1571 1572 1573 1574 1574 1575 1576 1577 1577 1578 1579 1580 1580